Probability
0 0 0 0 0 0 0 0 0 0 0 0 0 0 0 0 0 0 0 0 0 0 0 0 0 0 0 0 0 0 0 0 0 0 0 0 0 0
0 0 0 0 0 0 0 0 0 0 0 0 0 0 0 0 0 0 0 0 0 0 0 0 0 0 0 0 0 0 0 0 0 0 0 0 0 0
0 0 0 0 0 0 0 0 0 0 0 0 0 0 0 0 0 0 0 0 0 0 0 0 0 0 0 0 0 0 0 0 0 0 0 0 0 0
0 0 0 0 0 0 0 0 0 0 0 0 0 0 0 0 0 0 0 0 0 0 0 0 0 0 0 0 0 0 0 0 0 0 0 0 0 0
0 0 0 0 0 0 0 0 0 0 0 0 0 0 0 0 0 0 0 0 0 0 0 0 0 0 0 0 0 0 0 0 0 0 0 0 0 0
0 0 0 0 0 0 0 0 0 0 0 0 0 0 0 0 0 0 0 0 0 0 0 0 0 0 0 0 0 0 0 0 0 0 0 0 0 0
0 0 0 0 0 0 0 0 0 0 0 0 0 0 0 0 0 0 0 0 0 0 0 0 0 0 0 0 0 0 0 0 0 0 0 0 0 0
0 0 0 0 0 0 0 0 0 0 0 0 0 0 0 0 0 0 0 0 0 0 0 0 0 0 0 0 0 0 0 0 0 0 0 0 0 0
0 0 0 0 0 0 0 0 0 0 0 0 0 0 0 0 0 0 0 0 0 0 0 0 0 0 0 0 0 0 0 0 0 0 0 0 0 0
0 0 0 0 0 0 0 0 0 0 0 0 0 0 0 0 0 0 0 0 0 0 0 0 0 0 0 0 0 0 0 0 0 0 0 0 0 0
0 0 0 0 0 0 0 0 0 0 0 0 0 0 0 0 0 0 0 0 0 0 0 0 0 0 0 0 0 0 0 0 0 0 0 0 0 0
0 0 0 0 0 0 0 0 0 0 0 0 0 0 0 0 0 0 0 0 0 0 0 0 0 0 0 0 0 0 0 0 0 0 0 0 0 0
0 0 0 0 0 0 0 0 0 0 0 0 0 0 0 0 0 0 0 0 0 0 0 0 0 0 0 0 0 0 0 0 0 0 0 0 0 0
0 0 0 0 0 0 0 0 0 0 0 0 0 0 0 0 0 0 0 0 0 0 0 0 0 0 0 0 0 0 0 0 0 0 0 0 0 0
0 0 0 0 0 0 0 0 0 0 0 0 0 0 0 0 0 0 0 0 0 0 0 0 0 0 0 0 0 0 0 0 0 0 0 0 0 0
0 0 0 0 0 0 0 0 0 0 0 0 0 0 0 0 0 0 0 0 0 0 0 0 0 0 0 0 0 0 0 0 0 0 0 0 0 0
0 0 0 0 0 0 0 0 0 0 0 0 0 0 0 0 0 0 0 0 0 0 0 0 0 0 0 0 0 0 0 0 0 0 0 0 0 0
0 0 0 0 0 0 0 0 0 0 0 0 0 0 0 0 0 0 0 0 0 0 0 0 0 0 0 0 0 0 0 0 0 0 0 0 0 0
0 0 0 0 0 0 0 0 0 0 0 0 0 0 0 0 0 0 0 0 0 0 0 0 0 0 0 0 0 0 0 0 0 0 0 0 0 0
0 0 0 0 0 0 0 0 0 0 0 0 0 0 0 0 0 0 0 0 0 0 0 0 0 0 0 0 0 0 0 0 0 0 0 0 0 0
0 0 0 0 0 0 0 0 0 0 0 0 0 0 0 0 0 0 0 0 0 0 0 0 0 0 0 0 0 0 0 0 0 0 0 0 0 0
0 0 0 0 0 0 0 0 0 0 0 0 0 0 0 0 0 0 0 0 0 0 0 0 0 0 0 0 0 0 0 0 0 0 0 0 0 0
0 0 0 0 0 0 0 0 0 0 0 0 0 0 0 0 0 0 0 0 0 0 0 0 0 0 0 0 0 0 0 0 0 0 0 0 0 0
Height
5576 5565 5554 5544 5533 5522 5510 5499 5489 5485 5494 5503 5499 5496 5490 5487 5487 5484 5484 5486 5487 5488 5490 5492 5494 5496 5499 5502 5504 5507 5509 5511 5514 5516 5518 5520 5522 5524
5551 5540 5529 5518 5508 5498 5488 5478 5467 5455 5453 5466 5467 5467 5463 5461 5460 5458 5457 5457 5459 5462 5464 5466 5469 5472 5476 5479 5482 5486 5489 5492 5495 5498 5501 5503 5506 5508
5526 5515 5504 5493 5484 5475 5467 5459 5450 5439 5429 5436 5440 5441 5439 5437 5436 5434 5432 5432 5434 5437 5439 5441 5444 5448 5452 5455 5460 5464 5468 5473 5476 5480 5483 5486 5489 5492
5501 5490 5479 5469 5461 5453 5446 5439 5431 5423 5412 5410 5417 5418 5417 5414 5411 5410 5409 5409 5411 5414 5415 5417 5420 5424 5428 5432 5437 5442 5447 5452 5457 5461 5465 5469 5473 5476
5475 5465 5455 5446 5439 5432 5424 5417 5410 5403 5394 5386 5389 5393 5393 5391 5386 5386 5386 5387 5389 5391 5392 5395 5398 5402 5406 5411 5415 5420 5425 5431 5437 5441 5446 5451 5455 5459
5453 5442 5432 5423 5414 5407 5400 5393 5385 5379 5373 5366 5363 5364 5366 5366 5360 5359 5361 5364 5367 5369 5370 5374 5377 5381 5385 5390 5395 5400 5404 5410 5415 5421 5426 5432 5437 5442
5431 5420 5409 5398 5387 5378 5370 5365 5357 5351 5346 5341 5337 5335 5336 5336 5333 5331 5331 5338 5344 5346 5348 5354 5356 5361 5366 5370 5374 5379 5384 5389 5395 5401 5407 5413 5419 5425
5404 5394 5382 5370 5358 5349 5340 5332 5326 5320 5315 5311 5309 5306 5306 5305 5303 5302 5303 5309 5318 5326 5324 5332 5336 5342 5347 5351 5355 5359 5364 5370 5376 5382 5388 5395 5401 5407
5373 5361 5350 5339 5326 5315 5309 5303 5299 5292 5285 5280 5280 5279 5278 5277 5276 5277 5278 5281 5290 5300 5302 5311 5317 5322 5328 5331 5336 5341 5346 5352 5358 5364 5371 5377 5384 5390
5347 5333 5321 5311 5299 5286 5279 5276 5273 5270 5263 5259 5257 5255 5254 5254 5253 5254 5256 5260 5268 5276 5281 5288 5298 5303 5309 5314 5319 5325 5330 5336 5342 5349 5355 5361 5368 5374
5330 5316 5301 5290 5280 5268 5259 5255 5253 5251 5247 5244 5241 5238 5236 5236 5236 5237 5239 5242 5249 5258 5263 5269 5278 5284 5291 5298 5304 5309 5315 5321 5328 5334 5341 5346 5353 5359
5315 5303 5289 5276 5265 5255 5246 5240 5237 5235 5234 5232 5229 5226 5225 5224 5225 5225 5226 5229 5234 5243 5249 5253 5261 5267 5275 5283 5288 5294 5300 5307 5314 5320 5326 5333 5339 5345
5299 5289 5278 5267 5257 5247 5239 5232 5227 5224 5222 5221 5220 5219 5218 5217 5218 5218 5219 5220 5224 5231 5237 5241 5247 5253 5260 5268 5275 5281 5288 5295 5302 5308 5313 5319 5325 5331
5286 5276 5266 5257 5248 5240 5232 5226 5221 5217 5215 5214 5214 5214 5213 5213 5213 5214 5215 5216 5218 5222 5227 5232 5237 5243 5249 5256 5263 5270 5277 5284 5290 5296 5302 5307 5312 5317
5277 5267 5257 5248 5241 5234 5227 5221 5217 5214 5212 5211 5211 5211 5210 5210 5210 5211 5212 5213 5215 5218 5222 5227 5231 5236 5242 5248 5255 5262 5268 5274 5279 5285 5290 5295 5300 5305
5270 5261 5251 5242 5234 5228 5222 5218 5214 5211 5210 5209 5209 5209 5208 5208 5208 5209 5210 5211 5213 5216 5219 5223 5227 5232 5236 5242 5248 5254 5259 5264 5269 5274 5279 5284 5289 5295
5260 5253 5245 5238 5231 5225 5220 5216 5213 5212 5210 5209 5207 5207 5207 5206 5207 5207 5208 5210 5212 5214 5217 5220 5224 5228 5232 5237 5242 5247 5251 5256 5261 5266 5271 5275 5280 5285
5252 5246 5239 5232 5226 5222 5218 5216 5214 5212 5210 5208 5207 5206 5206 5206 5206 5207 5208 5209 5211 5213 5216 5219 5222 5226 5230 5234 5238 5242 5247 5251 5255 5260 5264 5268 5272 5276
5246 5240 5233 5228 5224 5221 5219 5217 5215 5213 5210 5208 5207 5206 5206 5206 5207 5208 5209 5210 5212 5214 5217 5220 5223 5226 5230 5233 5236 5240 5243 5247 5250 5253 5256 5260 5263 5265
5241 5235 5230 5226 5223 5222 5220 5218 5216 5213 5211 5209 5208 5208 5208 5208 5209 5210 5211 5213 5215 5217 5219 5221 5223 5225 5228 5230 5232 5234 5236 5239 5241 5244 5246 5248 5251 5253
5237 5232 5228 5226 5224 5223 5222 5219 5216 5214 5212 5211 5211 5211 5211 5211 5212 5213 5215 5216 5217 5218 5219 5220 5221 5222 5223 5224 5226 5226 5228 5229 5231 5233 5235 5236 5238 5240
5234 5230 5228 5227 5226 5225 5223 5220 5218 5216 5215 5215 5215 5215 5215 5216 5217 5217 5218 5218 5218 5218 5218 5217 5217 5217 5217 5217 5217 5217 5218 5219 5220 5221 5222 5224 5225 5226
5232 5230 5229 5229 5228 5227 5225 5223 5221 5221 5220 5220 5220 5220 5220 5220 5220 5220 5219 5218 5217 5215 5214 5212 5211 5210 5209 5208 5208 5207 5207 5207 5207 5208 5209 5209 5211 5213
Wind_Speed
97 99 100 101 100 98 96 93 93 96 95 88 83 79 77 76 75 76 75 75 74 74 74 72 69 66 64 61 59 56 55 55 56 56 55 53 53 52
101 102 101 99 96 91 86 82 80 81 83 77 73 70 68 68 68 71 73 73 73 73 74 75 73 71 68 65 61 58 56 55 56 58 57 56 56 55
101 99 96 92 86 81 76 72 71 73 75 70 67 65 64 65 65 67 69 70 70 70 71 72 72 71 69 67 65 62 59 58 57 57 58 58 58 57
96 92 87 82 77 73 71 70 70 72 74 73 68 66 65 65 66 66 66 67 67 67 67 67 67 68 68 67 66 65 63 61 59 59 59 58 58 58
89 84 81 78 76 74 74 74 75 75 77 79 76 72 70 68 69 68 67 66 65 64 64 63 63 64 65 66 66 66 65 63 62 60 59 58 58 57
83 81 81 81 81 82 81 82 83 83 83 85 84 81 77 74 74 73 70 67 65 63 62 62 61 62 63 64 65 65 65 64 64 62 60 58 57 57
83 84 86 87 88 90 90 90 90 91 90 90 89 86 82 78 77 75 74 69 65 64 63 61 61 61 60 61 63 64 65 66 67 65 62 59 57 56
89 89 90 91 92 93 94 94 94 94 93 91 88 85 80 75 73 71 71 69 64 61 63 60 60 59 59 60 61 62 63 65 66 65 61 59 56 57
90 89 87 86 87 88 87 87 86 84 84 83 80 75 70 65 63 61 62 62 60 58 61 58 58 57 57 59 59 59 60 61 61 62 60 58 57 55
80 78 76 74 73 74 73 71 69 65 64 64 63 61 58 54 51 50 51 53 54 54 57 56 56 57 57 57 57 57 56 56 57 57 54 54 54 54
70 69 68 65 63 62 61 58 53 49 47 47 47 47 46 43 41 40 40 43 44 46 51 54 54 55 55 55 54 54 54 52 51 51 50 49 49 50
65 62 60 58 55 53 51 48 43 38 34 32 32 33 33 32 31 31 32 33 35 36 40 46 48 50 51 50 50 50 49 48 46 45 46 47 46 48
61 57 54 51 48 46 44 42 38 32 26 21 19 20 22 23 23 24 25 25 24 23 27 34 37 40 42 43 43 44 44 42 41 41 41 42 44 45
57 53 50 48 45 42 40 36 32 26 19 14 11 11 13 15 17 19 19 19 17 14 17 22 25 29 32 34 35 36 38 37 36 37 38 40 41 42
50 47 46 45 42 39 36 32 26 19 13 10 8 8 10 12 13 14 14 13 12 11 12 15 18 22 25 27 29 31 33 33 33 34 35 36 37 39
45 42 41 40 38 36 31 25 18 13 11 10 8 8 9 10 10 10 10 10 10 10 10 12 14 17 20 22 24 27 29 30 30 31 32 33 35 36
43 40 38 35 33 30 25 18 13 11 13 13 12 10 7 7 7 7 7 7 8 8 9 10 11 13 16 18 20 22 24 26 27 29 30 31 32 33
40 38 35 31 28 22 14 10 10 13 15 15 12 8 5 4 4 4 4 4 4 5 6 7 9 11 13 14 16 18 19 22 24 26 27 29 31 34
38 35 30 26 20 12 7 8 11 15 16 13 8 6 4 3 2 1 1 2 3 5 6 8 9 10 12 14 15 17 19 22 24 26 29 31 33 34
34 30 25 19 11 7 7 10 14 15 13 9 6 5 4 4 3 3 3 4 5 6 7 8 9 10 12 15 17 19 21 23 25 27 29 30 31 32
28 24 19 11 5 6 9 13 14 12 9 7 7 7 7 7 6 5 4 4 4 6 7 9 11 13 15 17 18 20 22 24 25 27 29 30 31 32
22 18 12 5 4 7 11 13 11 9 9 9 10 11 10 9 7 4 1 2 5 8 10 12 14 15 17 18 20 22 24 26 27 29 31 32 33 34
16 11 4 3 5 9 11 11 10 11 12 13 14 13 11 9 6 5 5 7 9 11 13 14 15 17 19 20 22 24 26 27 28 28 28 29 28 28
Wind_Direction
300 300 299 299 298 297 296 294 293 291 289 287 283 280 276 272 270 267 265 262 259 258 256 257 258 260 261 261 260 258 256 253 252 252 252 254 253 252
300 300 299 298 297 296 295 293 291 290 289 288 285 281 276 272 268 266 264 262 260 259 257 256 256 255 256 256 256 256 254 252 251 250 251 251 250 250
301 300 299 298 296 294 293 291 290 289 289 289 287 284 281 277 272 268 264 262 261 259 258 256 255 254 253 253 252 252 251 250 250 250 250 251 251 249
301 299 298 296 294 293 291 290 289 288 288 289 288 286 284 281 277 272 268 265 262 259 257 256 254 252 251 250 250 250 249 248 248 249 249 249 249 248
300 298 296 294 293 291 290 289 288 287 288 288 289 288 285 282 278 275 271 268 264 260 258 255 253 252 251 250 249 249 248 247 246 248 247 247 247 247
299 297 295 293 291 290 288 287 286 286 286 287 287 287 285 282 279 275 271 267 264 262 259 256 253 252 251 250 249 248 248 246 245 246 245 246 246 246
298 296 294 292 290 289 287 286 285 285 285 285 286 285 284 281 277 274 270 266 262 260 257 255 254 252 251 250 250 249 248 247 246 245 244 244 244 243
300 297 294 292 290 288 287 286 285 285 285 285 285 285 284 282 278 273 269 265 260 257 256 253 253 251 250 250 251 251 250 249 249 247 247 245 245 243
303 301 298 296 293 290 288 286 285 285 285 285 285 286 285 282 278 273 268 263 258 253 252 250 250 250 249 250 251 252 251 251 250 250 249 246 244 243
308 307 306 303 300 297 293 290 288 286 285 285 286 287 286 283 279 274 267 261 256 251 249 247 246 247 247 248 250 250 251 250 250 249 250 248 245 243
314 313 311 308 305 302 299 297 294 291 289 288 288 286 285 283 279 274 268 261 254 247 246 246 244 244 244 245 247 248 248 248 248 248 247 246 244 242
317 316 314 312 310 308 306 305 302 299 295 290 286 285 284 283 280 276 271 264 258 248 243 244 243 243 242 242 243 243 243 243 244 244 242 242 241 242
319 318 317 315 315 313 312 311 310 308 304 297 287 280 278 279 278 277 276 273 265 251 240 239 239 240 240 238 237 238 237 237 239 238 238 239 241 241
321 320 319 318 318 317 315 314 313 312 312 306 294 281 274 274 277 278 278 277 272 253 233 231 231 231 232 230 229 229 230 233 235 235 236 239 239 238
321 320 319 318 318 317 315 314 314 316 319 319 312 294 280 276 277 277 277 274 268 254 236 226 224 222 221 220 220 223 229 232 233 235 237 237 235 234
320 320 319 319 318 318 317 316 318 325 332 334 328 310 294 283 278 276 272 266 261 252 243 233 222 217 214 214 217 223 229 233 233 233 232 232 231 231
322 322 321 319 318 316 316 317 324 334 337 334 330 323 307 287 280 278 270 261 256 250 246 235 224 217 216 218 221 224 227 228 228 226 225 225 226 229
321 322 322 321 320 319 318 325 336 338 334 331 331 331 317 296 289 282 276 260 246 234 225 215 209 206 206 207 208 211 213 216 219 221 225 229 234 238
322 323 323 324 325 326 335 344 341 335 333 336 342 348 348 344 331 300 176 165 168 169 171 173 179 186 194 200 206 213 218 223 228 232 236 240 244 247
322 323 325 328 330 340 349 346 340 337 339 348 0 12 27 44 67 101 124 140 155 166 176 186 199 210 219 227 232 236 239 242 244 246 248 251 253 254
322 323 327 334 345 354 349 346 346 352 4 23 39 48 58 70 80 97 116 147 187 210 224 234 242 246 249 252 253 255 256 256 257 257 258 258 258 258
324 325 332 352 8 355 350 353 4 23 46 58 62 66 71 73 72 75 86 259 265 266 267 267 268 269 269 268 267 267 265 264 264 263 263 262 261 259
325 329 354 39 12 357 0 16 43 61 70 72 72 70 65 56 41 12 335 313 302 298 296 294 290 286 283 280 277 275 273 271 268 266 264 261 259 256